Buffalo, SD

3:17 AM MDT on March 30, 2017 (GMT -0600)
Buffalo

Weather History for K2WX - January, 2014

Change the Weather History Date:

Friday, January 17, 2014

  Actual Average Record
Temperature  
Mean Temperature 32 °F 20 °F  
Max Temperature 44 °F 31 °F 48 °F (2000)
Min Temperature 19 °F 10 °F -12 °F (2016)
Degree Days  
Heating Degree Days 33 45  
Month to date heating degree days 727 765  
Since 1 July heating degree days 4063 4025  
Cooling Degree Days 0 0  
Month to date cooling degree days 0 0  
Year to date cooling degree days 0 0  
Moisture  
Dew Point 22 °F    
Average Humidity 67    
Maximum Humidity 84    
Minimum Humidity 49    
Precipitation  
Precipitation 0.00 in 0.01 in 0.03 in (2011)
Month to date precipitation 0.02 0.16  
Year to date precipitation 0.02 0.16  
Sea Level Pressure  
Sea Level Pressure 29.95 in    
Wind  
Wind Speed 20 mph (West)    
Max Wind Speed 47 mph    
Max Gust Speed 55 mph    
T = Trace of Precipitation, MM = Missing Value Source: NWS Daily Summary

Daily Weather History Graph

Daily Weather History Graph

Search for Another Location

Airport or City:

Trip Planner

Search our weather history database for the weather conditions in past years. The results will help you decide how hot, cold, wet, or windy it might be!

Date:

Astronomy

Jan. 17, 2014 Rise Set
Actual Time 7:29 AM MST 4:39 PM MST
Civil Twilight 6:56 AM MST 5:12 PM MST
Nautical Twilight 6:19 AM MST 5:49 PM MST
Astronomical Twilight 5:44 AM MST 6:24 PM MST
Moon 6:36 PM MST (1/17) 7:51 AM MST (1/17)
Length of Visible Light 10h 16m
Length of Day
9h 10m
Full, 98% of the Moon is Illuminated
Jan 17
Full
Jan 23
Last Quarter
Jan 30
New
Feb 6
First Quarter
Feb 14
Full

Hourly Weather History & Observations

Time (MST) Temp. Windchill Dew Point Humidity Pressure Visibility Wind Dir Wind Speed Gust Speed Precip Events Conditions
12:56 AM 19.0 °F 7.5 °F 15.1 °F 85% 30.17 in - West 10.4 mph - N/A   Unknown
1:56 AM 19.9 °F 10.1 °F 15.1 °F 81% 30.15 in - West 8.1 mph - N/A   Unknown
2:56 AM 19.9 °F 10.1 °F 15.1 °F 81% 30.13 in - West 8.1 mph - N/A   Unknown
3:56 AM 21.0 °F 9.9 °F 15.1 °F 78% 30.12 in - West 10.4 mph - N/A   Unknown
4:56 AM 21.9 °F 11.0 °F 15.1 °F 75% 30.09 in - West 10.4 mph - N/A   Unknown
5:56 AM 21.9 °F 11.7 °F 15.1 °F 75% 30.06 in - West 9.2 mph - N/A   Unknown
6:56 AM 24.1 °F 13.1 °F 17.1 °F 75% 30.05 in - West 11.5 mph - N/A   Unknown
7:56 AM 27.0 °F 16.7 °F 19.0 °F 72% 30.01 in - West 11.5 mph - N/A   Unknown
8:56 AM 28.9 °F 21.1 °F 21.0 °F 72% 30.00 in - West 8.1 mph - N/A   Unknown
9:56 AM 34.0 °F 26.0 °F 24.1 °F 67% 29.98 in - WSW 10.4 mph - N/A   Unknown
10:56 AM 37.0 °F 28.9 °F 25.0 °F 62% 29.96 in - West 12.7 mph - N/A   Unknown
11:56 AM 42.1 °F 32.8 °F 24.1 °F 49% 29.91 in - West 21.9 mph - N/A   Unknown
12:56 PM 41.0 °F 30.7 °F 24.1 °F 51% 29.88 in - West 25.3 mph - N/A   Unknown
1:56 PM 43.0 °F 34.2 °F 25.0 °F 49% 29.85 in - West 20.7 mph - N/A   Unknown
2:56 PM 43.0 °F 34.8 °F 26.1 °F 51% 29.86 in - West 18.4 mph - N/A   Unknown
3:56 PM 42.1 °F 32.3 °F 26.1 °F 53% 29.86 in - West 24.2 mph - N/A   Unknown
4:56 PM 39.0 °F 29.3 °F 26.1 °F 60% 29.87 in - WNW 19.6 mph - N/A   Unknown
5:56 PM 37.0 °F 25.4 °F 26.1 °F 65% 29.86 in - WNW 25.3 mph - N/A   Unknown
6:56 PM 37.9 °F 25.7 °F 26.1 °F 62% 29.85 in - WNW 29.9 mph 36.8 mph N/A   Unknown
7:56 PM 37.0 °F 24.5 °F 26.1 °F 65% 29.85 in - WNW 29.9 mph 39.1 mph N/A   Unknown
8:56 PM 37.0 °F 24.9 °F 26.1 °F 65% 29.86 in - WNW 27.6 mph 40.3 mph N/A   Unknown
9:56 PM 37.9 °F 24.4 °F 26.1 °F 62% 29.83 in - WNW 38.0 mph 46.0 mph N/A   Unknown
10:56 PM 37.9 °F 23.7 °F 26.1 °F 62% 29.81 in - WNW 42.6 mph 54.1 mph N/A   Unknown
11:56 PM 36.0 °F 21.5 °F 26.1 °F 67% 29.82 in - WNW 39.1 mph 48.3 mph N/A   Unknown